• Em Portugal
  • Lista de países
  • Para 7 dias
  • Temperatura da água
  • Mapas de satélite
  • Mapa do tempo
  • Widgets de tempo
  • user-avatar
    Iniciar Sessão

    Previsão horária em Hotetovo

    Hoje, 25 Maio, Sexta-feira

    Tempo Temperatura Precipitação Vento Pressão Humidade
    00:00 +13°C° 0 mm 3 m/s 745 mmHg 89%
    01:00 +12°C° 0 mm 3 m/s 745 mmHg 90%
    02:00 +12°C° 0 mm 3 m/s 745 mmHg 93%
    03:00 +12°C° 0 mm 3 m/s 745 mmHg 92%
    04:00 +12°C° 0 mm 4 m/s 745 mmHg 92%
    05:00 +13°C° 0 mm 4 m/s 746 mmHg 91%
    06:00 +14°C° 0 mm 5 m/s 746 mmHg 86%
    07:00 +16°C° 0 mm 5 m/s 746 mmHg 82%
    08:00 +17°C° 0 mm 5 m/s 746 mmHg 77%
    09:00 +19°C° 0 mm 6 m/s 747 mmHg 73%
    10:00 +20°C° 0 mm 6 m/s 747 mmHg 68%
    11:00 +21°C° 0 mm 6 m/s 747 mmHg 64%
    12:00 +21°C° 0 mm 6 m/s 747 mmHg 62%
    13:00 +21°C° 0 mm 6 m/s 747 mmHg 60%
    14:00 +20°C° 0 mm 6 m/s 748 mmHg 59%
    15:00 +20°C° 0 mm 6 m/s 748 mmHg 60%
    16:00 +19°C° 0 mm 5 m/s 748 mmHg 61%
    17:00 +17°C° 0 mm 5 m/s 748 mmHg 62%
    18:00 +16°C° 0 mm 5 m/s 749 mmHg 64%
    19:00 +14°C° 0 mm 4 m/s 749 mmHg 67%
    20:00 +13°C° 0 mm 4 m/s 750 mmHg 70%
    21:00 +12°C° 0 mm 4 m/s 750 mmHg 70%
    22:00 +11°C° 0 mm 4 m/s 750 mmHg 69%
    23:00 +11°C° 0 mm 4 m/s 751 mmHg 69%

    Amanhã, 26 Maio, Sábado

    Tempo Temperatura Precipitação Vento Pressão Humidade
    00:00 +10°C° 0 mm 4 m/s 751 mmHg 71%
    01:00 +8°C° 0 mm 4 m/s 752 mmHg 72%
    02:00 +9°C° 0 mm 3 m/s 752 mmHg 74%
    03:00 +9°C° 0 mm 3 m/s 753 mmHg 74%
    04:00 +9°C° 0 mm 3 m/s 753 mmHg 75%
    05:00 +8°C° 0 mm 3 m/s 754 mmHg 75%
    06:00 +10°C° 0 mm 4 m/s 754 mmHg 70%
    07:00 +12°C° 0 mm 4 m/s 754 mmHg 64%
    08:00 +13°C° 0 mm 4 m/s 755 mmHg 59%
    09:00 +14°C° 0 mm 4 m/s 755 mmHg 56%
    10:00 +15°C° 0 mm 5 m/s 755 mmHg 54%
    11:00 +16°C° 0 mm 5 m/s 755 mmHg 51%
    12:00 +16°C° 0 mm 5 m/s 755 mmHg 51%
    13:00 +17°C° 0 mm 5 m/s 755 mmHg 51%
    14:00 +18°C° 0 mm 4 m/s 755 mmHg 51%
    15:00 +18°C° 0 mm 4 m/s 755 mmHg 53%
    16:00 +17°C° 0 mm 4 m/s 754 mmHg 56%
    17:00 +17°C° 0 mm 3 m/s 754 mmHg 59%
    18:00 +14°C° 0 mm 3 m/s 754 mmHg 64%
    19:00 +13°C° 0 mm 2 m/s 754 mmHg 70%
    20:00 +12°C° 0 mm 2 m/s 755 mmHg 75%
    21:00 +10°C° 0 mm 2 m/s 755 mmHg 76%
    22:00 +9°C° 0 mm 2 m/s 755 mmHg 78%
    23:00 +8°C° 0 mm 2 m/s 755 mmHg 79%

    Depois de amanhã, 27 Maio, Domingo

    Tempo Temperatura Precipitação Vento Pressão Humidade
    00:00 +8°C° 0 mm 2 m/s 755 mmHg 80%
    01:00 +8°C° 0 mm 1 m/s 755 mmHg 81%
    02:00 +8°C° 0 mm 1 m/s 755 mmHg 83%
    03:00 +8°C° 0 mm 1 m/s 755 mmHg 82%
    04:00 +9°C° 0 mm 1 m/s 755 mmHg 81%
    05:00 +9°C° 0 mm 1 m/s 755 mmHg 81%
    06:00 +11°C° 0 mm 1 m/s 755 mmHg 74%
    07:00 +13°C° 0 mm 1 m/s 755 mmHg 67%
    08:00 +15°C° 0 mm 1 m/s 755 mmHg 60%
    09:00 +16°C° 0 mm 1 m/s 754 mmHg 56%
    10:00 +18°C° 0 mm 1 m/s 754 mmHg 51%
    11:00 +18°C° 0 mm 2 m/s 754 mmHg 47%
    12:00 +20°C° 0 mm 1 m/s 753 mmHg 47%
    13:00 +20°C° 0 mm 1 m/s 753 mmHg 46%
    14:00 +21°C° 0 mm 1 m/s 752 mmHg 45%
    15:00 +21°C° 0 mm 1 m/s 752 mmHg 48%
    16:00 +21°C° 0 mm 1 m/s 752 mmHg 51%
    17:00 +20°C° 0 mm 2 m/s 751 mmHg 54%
    18:00 +18°C° 0 mm 2 m/s 751 mmHg 60%
    19:00 +15°C° 0 mm 1 m/s 751 mmHg 67%
    20:00 +13°C° 0 mm 1 m/s 751 mmHg 73%
    21:00 +13°C° 0 mm 2 m/s 751 mmHg 75%
    22:00 +12°C° 0 mm 2 m/s 751 mmHg 77%
    23:00 +10°C° 0 mm 2 m/s 751 mmHg 79%

    28 Maio, Segunda-feira

    Tempo Temperatura Precipitação Vento Pressão Humidade
    00:00 +10°C° 0 mm 2 m/s 751 mmHg 80%
    01:00 +10°C° 0 mm 2 m/s 751 mmHg 82%
    02:00 +10°C° 0 mm 2 m/s 751 mmHg 84%
    03:00 +10°C° 0 mm 2 m/s 751 mmHg 84%
    04:00 +12°C° 0 mm 2 m/s 751 mmHg 85%
    05:00 +12°C° 0 mm 2 m/s 751 mmHg 86%
    06:00 +14°C° 0 mm 2 m/s 751 mmHg 81%
    07:00 +16°C° 0 mm 2 m/s 751 mmHg 77%
    08:00 +18°C° 0 mm 2 m/s 751 mmHg 73%
    09:00 +19°C° 0 mm 3 m/s 751 mmHg 69%
    10:00 +20°C° 0 mm 3 m/s 752 mmHg 65%
    11:00 +21°C° 0 mm 4 m/s 752 mmHg 61%
    12:00 +21°C° 0 mm 4 m/s 752 mmHg 58%
    13:00 +22°C° 0 mm 4 m/s 752 mmHg 56%
    14:00 +22°C° 0 mm 4 m/s 752 mmHg 54%
    15:00 +21°C° 0 mm 3 m/s 752 mmHg 56%
    16:00 +21°C° 0 mm 3 m/s 752 mmHg 58%
    17:00 +20°C° 0 mm 3 m/s 752 mmHg 60%
    18:00 +18°C° 0 mm 3 m/s 752 mmHg 66%
    19:00 +16°C° 0 mm 2 m/s 752 mmHg 71%
    20:00 +14°C° 0 mm 2 m/s 752 mmHg 76%
    21:00 +13°C° 0 mm 2 m/s 753 mmHg 77%
    22:00 +12°C° 0 mm 2 m/s 753 mmHg 78%
    23:00 +10°C° 0 mm 2 m/s 753 mmHg 78%

    29 Maio, Terça-feira

    Tempo Temperatura Precipitação Vento Pressão Humidade
    00:00 +10°C° 0 mm 2 m/s 754 mmHg 77%
    01:00 +9°C° 0 mm 2 m/s 754 mmHg 76%
    02:00 +8°C° 0 mm 2 m/s 754 mmHg 74%
    03:00 +8°C° 0 mm 2 m/s 754 mmHg 74%
    04:00 +10°C° 0 mm 1 m/s 754 mmHg 75%
    05:00 +10°C° 0 mm 1 m/s 755 mmHg 75%
    06:00 +12°C° 0 mm 1 m/s 755 mmHg 68%
    07:00 +14°C° 0 mm 1 m/s 755 mmHg 61%
    08:00 +16°C° 0 mm 1 m/s 755 mmHg 55%
    09:00 +19°C° 0 mm 1 m/s 754 mmHg 51%
    10:00 +20°C° 0 mm 1 m/s 754 mmHg 48%
    11:00 +21°C° 0 mm 1 m/s 754 mmHg 45%
    12:00 +22°C° 0 mm 1 m/s 754 mmHg 45%
    13:00 +22°C° 0 mm 1 m/s 753 mmHg 45%
    14:00 +23°C° 0 mm 2 m/s 753 mmHg 46%
    15:00 +23°C° 0 mm 1 m/s 753 mmHg 48%
    16:00 +23°C° 0 mm 1 m/s 752 mmHg 51%
    17:00 +22°C° 0 mm 1 m/s 752 mmHg 54%
    18:00 +20°C° 0 mm 1 m/s 752 mmHg 60%
    19:00 +18°C° 0 mm 1 m/s 751 mmHg 66%
    20:00 +15°C° 0 mm 1 m/s 751 mmHg 72%
    21:00 +15°C° 0 mm 1 m/s 751 mmHg 73%
    22:00 +14°C° 0 mm 1 m/s 751 mmHg 74%
    23:00 +14°C° 0 mm 2 m/s 751 mmHg 75%

    30 Maio, Quarta-feira

    Tempo Temperatura Precipitação Vento Pressão Humidade
    00:00 +13°C° 0 mm 2 m/s 751 mmHg 78%
    01:00 +13°C° 0 mm 2 m/s 751 mmHg 81%
    02:00 +12°C° 0 mm 2 m/s 751 mmHg 83%
    03:00 +13°C° 0 mm 2 m/s 750 mmHg 83%
    04:00 +13°C° 0 mm 2 m/s 750 mmHg 82%
    05:00 +12°C° 0 mm 3 m/s 750 mmHg 82%
    06:00 +14°C° 0 mm 3 m/s 750 mmHg 77%
    07:00 +17°C° 0 mm 3 m/s 749 mmHg 72%
    08:00 +19°C° 0 mm 4 m/s 749 mmHg 67%
    09:00 +21°C° 0 mm 4 m/s 749 mmHg 63%
    10:00 +22°C° 0 mm 5 m/s 748 mmHg 59%
    11:00 +23°C° 0 mm 5 m/s 748 mmHg 55%
    12:00 +23°C° 0 mm 5 m/s 747 mmHg 54%
    13:00 +25°C° 0 mm 5 m/s 747 mmHg 53%
    14:00 +24°C° 0 mm 6 m/s 746 mmHg 53%
    15:00 +25°C° 0 mm 5 m/s 746 mmHg 57%
    16:00 +25°C° 0 mm 5 m/s 745 mmHg 61%
    17:00 +23°C° 0 mm 4 m/s 745 mmHg 65%
    18:00 +22°C° 0 mm 4 m/s 744 mmHg 70%
    19:00 +20°C° 0 mm 4 m/s 744 mmHg 76%
    20:00 +18°C° 0 mm 4 m/s 744 mmHg 81%
    21:00 +18°C° 0 mm 4 m/s 744 mmHg 83%
    22:00 +17°C° 0 mm 4 m/s 743 mmHg 85%
    23:00 +17°C° 0 mm 4 m/s 743 mmHg 87%
    Mostrar mais